When you browse on this site, cookies collect data to enhance your experience and personalize the content and advertising you see.
Visit our Privacy Policy to learn more. By continuing to use the site, you agree to this use of cookies and data.
  • In Hungary
  • List of Countries
  • For 7 days
  • Water Temperature
  • Weather Map
  • News
  • Weather Widgets
  • user-avatar
    Login

    Hourly Weather Caño Grande

    Today, 29 March, Sunday

    Time Temperature Precipitation Wind Pressure Humidity
    00:00 +23°C° 0 mm 2 mps 677 mmHg 57%
    01:00 +23°C° 0 mm 2 mps 677 mmHg 53%
    02:00 +21°C° 0 mm 2 mps 677 mmHg 54%
    03:00 +21°C° 0 mm 2 mps 677 mmHg 55%
    04:00 +22°C° 0 mm 1 mps 678 mmHg 56%
    05:00 +23°C° 0 mm 1 mps 678 mmHg 54%
    06:00 +24°C° 0 mm 1 mps 679 mmHg 53%
    07:00 +24°C° 0 mm 1 mps 680 mmHg 52%
    08:00 +26°C° 0 mm 2 mps 680 mmHg 49%
    09:00 +28°C° 0 mm 2 mps 681 mmHg 45%
    10:00 +30°C° 0 mm 3 mps 682 mmHg 42%
    11:00 +31°C° 0 mm 3 mps 681 mmHg 42%
    12:00 +32°C° 0 mm 2 mps 680 mmHg 41%
    13:00 +32°C° 0 mm 2 mps 679 mmHg 40%
    14:00 +32°C° 0 mm 2 mps 679 mmHg 41%
    15:00 +32°C° 0 mm 2 mps 678 mmHg 42%
    16:00 +32°C° 0 mm 2 mps 677 mmHg 43%
    17:00 +30°C° 0 mm 2 mps 677 mmHg 48%
    18:00 +28°C° 0 mm 1 mps 677 mmHg 53%
    19:00 +26°C° 0 mm 1 mps 677 mmHg 59%
    20:00 +26°C° 0 mm 1 mps 678 mmHg 59%
    21:00 +25°C° 0 mm 1 mps 678 mmHg 60%
    22:00 +25°C° 0 mm 1 mps 679 mmHg 60%
    23:00 +25°C° 0 mm 1 mps 679 mmHg 62%

    Tomorrow, 30 March, Monday

    Time Temperature Precipitation Wind Pressure Humidity
    00:00 +25°C° 0 mm 1 mps 678 mmHg 64%
    01:00 +24°C° 0 mm 1 mps 678 mmHg 65%
    02:00 +24°C° 0 mm 1 mps 678 mmHg 67%
    03:00 +24°C° 0 mm 1 mps 678 mmHg 68%
    04:00 +22°C° 0 mm 0 mps 678 mmHg 69%
    05:00 +24°C° 0 mm 1 mps 678 mmHg 69%
    06:00 +24°C° 0 mm 1 mps 679 mmHg 69%
    07:00 +24°C° 0 mm 1 mps 679 mmHg 69%
    08:00 +26°C° 0 mm 1 mps 680 mmHg 66%
    09:00 +27°C° 0 mm 1 mps 680 mmHg 64%
    10:00 +28°C° 0 mm 2 mps 681 mmHg 61%
    11:00 +28°C° 0.1 mm 2 mps 680 mmHg 60%
    12:00 +29°C° 0.1 mm 1 mps 679 mmHg 59%
    13:00 +30°C° 0.1 mm 1 mps 678 mmHg 58%
    14:00 +30°C° 0.1 mm 1 mps 678 mmHg 57%
    15:00 +30°C° 0.1 mm 1 mps 677 mmHg 56%
    16:00 +30°C° 0.1 mm 1 mps 677 mmHg 55%
    17:00 +29°C° 0.1 mm 1 mps 677 mmHg 59%
    18:00 +28°C° 0.1 mm 1 mps 677 mmHg 63%
    19:00 +26°C° 0.1 mm 1 mps 677 mmHg 67%
    20:00 +26°C° 0 mm 1 mps 677 mmHg 66%
    21:00 +26°C° 0 mm 1 mps 678 mmHg 66%
    22:00 +26°C° 0 mm 1 mps 678 mmHg 65%
    23:00 +26°C° 0 mm 1 mps 678 mmHg 65%

    Day after tomorrow, 31 March, Tuesday

    Time Temperature Precipitation Wind Pressure Humidity
    00:00 +26°C° 0 mm 1 mps 677 mmHg 65%
    01:00 +26°C° 0 mm 1 mps 677 mmHg 66%
    02:00 +25°C° 0.1 mm 1 mps 677 mmHg 68%
    03:00 +22°C° 0.1 mm 0 mps 676 mmHg 71%
    04:00 +22°C° 0.1 mm 0 mps 676 mmHg 74%
    05:00 +22°C° 0 mm 0 mps 677 mmHg 73%
    06:00 +22°C° 0 mm 0 mps 677 mmHg 72%
    07:00 +25°C° 0 mm 1 mps 678 mmHg 72%
    08:00 +25°C° 0 mm 1 mps 678 mmHg 70%
    09:00 +25°C° 0 mm 1 mps 679 mmHg 69%
    10:00 +26°C° 0 mm 2 mps 679 mmHg 68%
    11:00 +27°C° 0 mm 2 mps 678 mmHg 65%
    12:00 +28°C° 0 mm 1 mps 677 mmHg 63%
    13:00 +28°C° 0 mm 1 mps 677 mmHg 60%
    14:00 +29°C° 0.1 mm 1 mps 676 mmHg 59%
    15:00 +29°C° 0.1 mm 1 mps 676 mmHg 58%
    16:00 +29°C° 0.1 mm 1 mps 675 mmHg 57%
    17:00 +28°C° 0 mm 1 mps 675 mmHg 62%
    18:00 +27°C° 0 mm 1 mps 676 mmHg 66%
    19:00 +23°C° 0 mm 0 mps 676 mmHg 70%
    20:00 +23°C° 0 mm 0 mps 676 mmHg 70%
    21:00 +25°C° 0 mm 1 mps 676 mmHg 71%
    22:00 +24°C° 0 mm 1 mps 677 mmHg 71%
    23:00 +24°C° 0 mm 1 mps 676 mmHg 71%

    1 April, Wednesday

    Time Temperature Precipitation Wind Pressure Humidity
    00:00 +24°C° 0 mm 1 mps 676 mmHg 71%
    01:00 +24°C° 0 mm 1 mps 676 mmHg 72%
    02:00 +24°C° 0 mm 1 mps 676 mmHg 72%
    03:00 +24°C° 0 mm 1 mps 676 mmHg 72%
    04:00 +24°C° 0 mm 1 mps 676 mmHg 72%
    05:00 +24°C° 0 mm 1 mps 676 mmHg 70%
    06:00 +25°C° 0 mm 1 mps 677 mmHg 67%
    07:00 +26°C° 0 mm 1 mps 677 mmHg 65%
    08:00 +26°C° 0 mm 1 mps 678 mmHg 64%
    09:00 +27°C° 0 mm 1 mps 678 mmHg 64%
    10:00 +27°C° 0 mm 2 mps 678 mmHg 63%
    11:00 +28°C° 0.1 mm 2 mps 678 mmHg 61%
    12:00 +29°C° 0.1 mm 2 mps 677 mmHg 59%
    13:00 +30°C° 0.1 mm 2 mps 677 mmHg 57%
    14:00 +30°C° 0.1 mm 2 mps 676 mmHg 58%
    15:00 +29°C° 0.1 mm 1 mps 676 mmHg 59%
    16:00 +29°C° 0.1 mm 1 mps 675 mmHg 60%
    17:00 +28°C° 0.1 mm 1 mps 676 mmHg 63%
    18:00 +27°C° 0.1 mm 1 mps 676 mmHg 66%
    19:00 +26°C° 0.1 mm 1 mps 676 mmHg 69%
    20:00 +26°C° 0.3 mm 1 mps 677 mmHg 71%
    21:00 +25°C° 0.3 mm 1 mps 677 mmHg 73%
    22:00 +25°C° 0.3 mm 1 mps 678 mmHg 75%
    23:00 +25°C° 0.3 mm 1 mps 677 mmHg 75%

    2 April, Thursday

    Time Temperature Precipitation Wind Pressure Humidity
    00:00 +25°C° 0.3 mm 1 mps 677 mmHg 75%
    01:00 +25°C° 0.3 mm 1 mps 677 mmHg 75%
    02:00 +24°C° 0 mm 1 mps 677 mmHg 75%
    03:00 +24°C° 0 mm 1 mps 677 mmHg 76%
    04:00 +23°C° 0 mm 1 mps 677 mmHg 77%
    05:00 +24°C° 0 mm 1 mps 677 mmHg 75%
    06:00 +23°C° 0 mm 0 mps 678 mmHg 73%
    07:00 +23°C° 0 mm 0 mps 679 mmHg 72%
    08:00 +27°C° 0 mm 1 mps 679 mmHg 67%
    09:00 +28°C° 0 mm 1 mps 680 mmHg 63%
    10:00 +30°C° 0 mm 1 mps 680 mmHg 58%
    11:00 +30°C° 0.1 mm 1 mps 679 mmHg 58%
    12:00 +30°C° 0.1 mm 1 mps 679 mmHg 57%
    13:00 +29°C° 0.1 mm 0 mps 678 mmHg 57%
    14:00 +30°C° 0.3 mm 1 mps 677 mmHg 57%
    15:00 +30°C° 0.3 mm 1 mps 677 mmHg 58%
    16:00 +30°C° 0.3 mm 1 mps 676 mmHg 59%
    17:00 +29°C° 0.3 mm 1 mps 677 mmHg 65%
    18:00 +27°C° 0.3 mm 1 mps 677 mmHg 70%
    19:00 +24°C° 0.3 mm 0 mps 677 mmHg 76%
    20:00 +25°C° 1 mm 1 mps 677 mmHg 79%
    21:00 +25°C° 1 mm 1 mps 678 mmHg 81%
    22:00 +24°C° 1 mm 1 mps 678 mmHg 83%
    23:00 +24°C° 0.7 mm 1 mps 678 mmHg 84%

    3 April, Friday

    Time Temperature Precipitation Wind Pressure Humidity
    00:00 +24°C° 0.7 mm 1 mps 678 mmHg 85%
    01:00 +23°C° 0.7 mm 1 mps 677 mmHg 86%
    02:00 +23°C° 0.5 mm 1 mps 677 mmHg 87%
    03:00 +23°C° 0.5 mm 1 mps 677 mmHg 87%
    04:00 +23°C° 0.5 mm 1 mps 677 mmHg 87%
    05:00 +23°C° 0.5 mm 1 mps 678 mmHg 85%
    06:00 +24°C° 0.5 mm 1 mps 678 mmHg 83%
    07:00 +23°C° 0.5 mm 0 mps 679 mmHg 80%
    08:00 +26°C° 0.7 mm 1 mps 679 mmHg 78%
    09:00 +27°C° 0.7 mm 1 mps 680 mmHg 76%
    10:00 +27°C° 0.7 mm 1 mps 680 mmHg 73%
    11:00 +28°C° 1.2 mm 1 mps 679 mmHg 73%
    12:00 +28°C° 1.2 mm 1 mps 679 mmHg 73%
    13:00 +28°C° 1.2 mm 1 mps 678 mmHg 73%
    14:00 +28°C° 1.1 mm 1 mps 678 mmHg 75%
    15:00 +28°C° 1.1 mm 1 mps 677 mmHg 76%
    16:00 +27°C° 1.1 mm 1 mps 676 mmHg 77%
    17:00 +26°C° 1.1 mm 1 mps 677 mmHg 80%
    18:00 +25°C° 1.1 mm 1 mps 677 mmHg 83%
    19:00 +24°C° 1.1 mm 1 mps 677 mmHg 86%
    20:00 +24°C° 1.4 mm 1 mps 678 mmHg 87%
    21:00 +24°C° 1.4 mm 1 mps 678 mmHg 89%
    22:00 +23°C° 1.4 mm 1 mps 678 mmHg 91%
    23:00 +23°C° 1.2 mm 1 mps 678 mmHg 91%
    Show more